User: anonymous   Login
Location: Unspecified
(0.0000°N, 0.0000°E)
Time: 13:16:22
(UTC+00:00)
Language:

OPTUS D2 - Orbit

View from above orbital plane
View from above orbital plane
View from above satellite
View from above satellite

Ground track
Ground track

The orbit data is extracted from the following two-line orbital elements,

1 32252U 07044A   17264.88328684 -.00000209 +00000-0 +00000-0 0  9998
2 32252 000.0107 131.3078 0003429 048.2248 291.3903 01.00271001036584
Epoch (UTC): 21 September 2017 21:11:55
Eccentricity: 0.0003429
inclination: 0.0107°
perigee height: 35772 km
apogee height: 35801 km
right ascension of ascending node: 131.3078°
argument of perigee: 48.2248°
revolutions per day: 1.00271001
mean anomaly at epoch: 291.3903°
orbit number at epoch: 3658

The dashed part of the orbit path shows where the satellite is in the earth's shadow,  

DLR